Wind_Speed
12 13 13 13 13 12 11 12 13 13 13 14 14 15 17 21 20 21 20 12 7 6 7 10 14 12 7 10 14 8 1 5 7 8 8 25 13 20 20 25 28 8 10 24 32
13 13 13 13 13 12 12 11 12 14 15 16 16 17 19 23 23 6 7 1 3 4 5 8 9 4 7 7 8 7 5 9 7 7 9 21 23 18 13 22 24 16 9 20 28
15 13 12 12 12 11 11 12 13 15 17 17 19 19 19 19 19 2 6 7 5 6 8 10 6 6 7 14 9 5 11 7 11 21 24 21 28 34 5 6 19 12 13 25 30
15 14 13 12 11 12 12 13 15 16 18 20 20 19 17 14 3 2 8 9 7 5 6 5 3 2 3 4 12 9 21 15 15 28 25 17 33 26 17 14 29 28 16 13 12
15 14 13 12 11 12 14 15 16 17 17 19 19 17 14 7 7 2 4 6 8 5 7 9 11 9 4 4 9 8 13 23 26 30 31 33 23 20 31 23 20 26 25 23 21
16 14 13 12 12 13 14 16 16 17 17 16 14 11 9 5 9 5 3 6 8 9 11 10 7 11 10 2 2 10 15 13 11 15 21 14 16 17 20 21 22 27 32 31 29
18 15 14 13 13 13 15 16 17 14 14 14 9 7 10 13 4 2 1 5 9 8 10 9 9 7 10 7 8 12 9 10 6 7 6 15 18 11 22 21 24 22 27 33 35
18 16 14 13 13 13 14 16 16 13 10 7 7 6 7 3 5 2 10 11 10 12 11 11 10 12 5 4 8 7 6 5 2 6 7 1 23 8 22 24 31 35 26 29 38
19 17 14 13 12 13 14 15 14 10 4 3 1 4 7 4 6 4 2 8 11 10 9 11 9 7 7 1 4 2 8 10 11 6 6 5 18 4 18 17 16 15 18 17 22
20 16 15 13 10 11 12 12 9 9 9 6 4 4 1 7 10 7 7 11 12 12 8 5 2 2 3 3 3 5 6 6 7 2 9 10 16 18 19 13 21 18 19 27 27
18 15 13 12 8 9 8 5 4 2 9 8 3 6 8 7 7 5 12 12 11 5 1 6 3 6 13 11 10 10 8 14 14 14 4 17 19 21 20 17 17 19 19 18 22
19 15 13 10 6 4 4 2 3 2 7 12 10 10 6 4 7 5 13 5 6 4 6 6 5 9 7 10 10 13 14 17 20 16 8 10 14 17 16 8 19 26 22 21 28
18 15 12 8 6 5 5 5 2 2 2 6 11 7 3 4 5 11 7 4 2 3 4 2 11 12 8 7 11 7 5 6 11 7 6 5 10 9 9 8 18 23 26 28 28
16 15 12 7 8 8 6 5 2 2 3 3 5 3 4 2 3 6 6 3 5 4 5 6 5 13 14 12 8 14 5 11 12 10 8 3 14 22 7 10 8 18 27 27 25
19 14 12 13 9 11 6 3 2 5 1 6 5 5 1 2 5 5 13 6 2 6 2 7 9 13 10 7 6 10 9 7 8 12 5 22 3 14 1 9 7 9 29 28 22
17 14 12 14 14 10 2 3 8 4 5 4 5 4 2 5 5 2 9 12 16 4 3 5 6 2 3 9 10 12 15 11 5 5 8 21 11 6 17 8 8 18 27 27 19
16 14 14 14 13 10 5 6 3 3 7 4 3 4 4 3 3 4 4 7 2 6 4 5 3 3 12 10 8 18 9 5 4 3 11 16 12 15 14 7 11 13 23 33 33
16 16 18 16 10 8 12 2 3 4 4 5 4 2 3 5 5 4 4 5 7 6 4 4 4 8 10 5 5 6 0 3 5 7 8 15 6 11 10 19 25 33 38 27 28
17 16 17 12 9 12 6 2 3 2 3 3 2 2 4 6 5 6 6 5 6 9 4 5 4 9 7 9 2 7 3 7 8 10 7 6 8 5 22 22 24 27 24 15 16
18 15 11 11 11 13 2 2 3 5 2 3 3 4 4 4 4 4 3 5 4 7 3 2 12 2 3 6 6 2 7 6 3 2 5 4 6 7 18 19 23 20 27 32 12
20 9 12 8 15 4 3 2 5 9 5 4 3 4 5 5 5 4 3 3 2 6 7 2 3 8 4 4 10 10 3 2 4 3 4 7 1 4 9 12 20 14 22 34 33
13 2 13 17 4 3 2 4 8 5 6 3 4 6 4 5 2 2 2 3 2 2 3 2 3 4 6 12 3 11 8 3 2 5 3 5 3 1 5 9 17 15 26 26 20
14 7 12 10 3 1 3 3 6 4 6 3 3 5 3 2 1 2 4 6 13 6 3 3 2 4 5 2 2 3 6 5 4 3 4 2 5 5 6 13 17 16 21 15 10
7 3 6 8 3 7 6 4 4 6 5 4 3 6 4 3 1 3 5 4 19 11 5 2 2 4 5 10 7 9 11 13 10 4 8 8 8 5 7 14 17 20 25 17 39
3 3 6 3 0 6 5 4 8 4 3 2 4 5 3 2 3 1 3 4 6 3 2 2 4 5 9 13 13 12 11 11 11 6 4 12 2 4 5 9 11 11 13 28 26
7 5 6 6 12 8 5 4 6 7 4 2 5 3 2 2 5 5 3 2 5 3 6 1 3 2 5 11 9 8 13 14 11 14 10 8 9 11 12 8 11 16 23 23 18
7 8 8 3 4 5 4 5 5 7 2 7 6 2 2 5 9 16 18 14 13 4 2 2 2 3 4 5 6 3 13 9 4 12 8 10 7 11 13 10 15 15 15 15 16
Wind_Direction
305 307 305 306 307 306 307 311 313 314 315 314 316 312 312 309 313 315 298 280 246 265 286 290 281 263 263 246 227 230 222 221 234 232 257 289 300 310 316 329 331 256 225 184 176
298 298 300 302 304 304 305 308 308 310 312 312 311 309 309 311 316 332 356 38 235 277 300 311 319 242 227 252 227 188 214 228 235 244 277 289 291 306 327 322 318 338 224 177 174
293 292 294 296 298 297 300 302 305 310 310 309 307 307 308 314 326 314 47 40 10 329 313 295 277 277 241 244 239 239 242 264 273 275 277 281 289 286 258 249 289 310 313 167 168
283 288 288 288 292 295 298 303 305 306 306 304 304 305 306 310 290 47 348 355 327 323 344 358 272 233 246 242 250 252 269 269 271 271 269 270 273 276 259 248 279 288 297 285 231
274 275 277 277 282 289 294 298 299 301 305 303 302 300 297 274 260 251 354 347 343 313 299 310 293 280 222 246 307 248 256 263 267 266 264 267 261 264 275 271 267 277 279 280 272
265 264 265 267 273 279 287 291 297 305 308 307 306 303 281 262 179 309 290 306 313 297 294 289 273 300 288 278 264 299 298 286 291 291 287 271 276 283 292 292 266 270 277 275 278
257 255 257 262 271 281 289 295 299 303 307 303 303 302 274 261 313 268 342 290 291 289 295 280 290 285 308 329 322 314 307 312 275 274 279 304 279 259 285 295 284 271 271 280 284
255 254 254 259 272 283 289 294 296 299 297 291 293 292 258 4 326 300 308 305 293 272 280 288 275 292 263 282 319 334 304 294 77 355 293 137 277 294 297 279 274 280 272 273 284
246 245 247 253 265 283 290 290 291 285 260 308 179 321 273 327 299 315 298 316 315 313 307 276 278 271 279 344 3 289 265 271 292 233 262 221 281 242 287 295 287 283 299 304 303
243 238 243 250 266 282 288 292 282 260 261 253 220 306 351 314 311 338 2 343 322 290 295 264 233 186 357 84 236 243 260 262 276 314 301 280 278 285 269 275 277 272 282 287 300
246 243 249 254 267 281 282 283 264 231 226 220 245 260 290 315 287 353 1 340 13 47 322 277 117 221 231 222 223 227 252 263 270 271 213 267 273 275 274 247 258 274 283 295 300
230 239 243 250 255 228 263 170 150 279 308 245 241 257 249 318 315 311 347 29 22 340 4 9 249 243 285 256 246 247 249 264 273 269 207 255 263 270 271 233 246 268 271 280 289
224 228 235 234 199 201 189 157 68 274 262 286 216 222 265 269 293 317 16 37 51 328 355 219 263 308 340 329 328 300 248 284 291 323 286 280 277 277 285 271 268 262 266 275 277
226 223 221 215 178 192 214 156 25 156 67 230 205 224 215 293 282 14 35 44 9 317 320 273 305 337 322 314 265 295 308 294 299 322 294 161 282 272 282 271 262 267 274 275 274
219 215 205 193 173 192 205 160 123 134 342 165 149 155 52 55 329 112 53 17 289 280 164 255 297 302 307 264 333 297 312 295 292 280 294 278 234 294 239 280 291 291 284 275 270
210 207 198 184 186 191 199 186 141 73 238 180 138 142 51 349 307 319 29 6 322 275 236 241 273 274 356 348 346 333 352 333 267 244 253 268 258 248 273 265 274 275 271 276 270
204 197 186 187 193 187 186 172 69 173 153 137 117 71 28 250 305 64 40 355 1 334 331 303 303 0 42 357 347 3 358 328 296 232 258 273 268 256 266 279 266 274 274 283 280
193 184 185 195 190 173 169 60 207 129 72 78 72 1 188 13 68 33 40 2 7 337 304 358 343 21 351 53 315 301 98 211 290 307 313 308 269 260 13 5 334 340 280 270 290
180 177 189 194 192 181 176 129 188 28 61 83 36 164 82 21 53 42 16 35 31 29 9 327 263 355 2 326 14 309 266 274 264 271 256 253 277 276 357 358 342 346 318 236 171
164 164 181 168 167 169 107 149 87 52 31 26 95 55 74 31 59 50 337 61 0 14 347 293 303 314 305 324 280 228 299 327 290 298 276 260 332 352 355 344 346 357 354 16 53
152 149 169 153 152 168 150 132 113 88 88 57 75 75 56 28 26 9 315 81 18 323 338 356 224 306 355 319 309 305 282 259 252 240 288 293 208 286 6 13 356 8 1 24 16
155 102 163 156 121 166 139 113 116 123 89 112 82 60 76 36 331 310 333 211 318 319 327 324 272 295 285 271 207 20 9 337 310 346 257 291 299 314 44 12 17 2 334 33 4
146 115 159 178 143 144 141 81 65 75 53 63 69 74 56 97 305 283 325 335 21 355 343 342 333 308 301 311 214 335 293 246 245 219 280 307 276 67 22 27 38 21 340 334 281
152 107 157 209 204 129 127 126 107 79 88 99 55 65 73 1 75 290 353 317 323 299 295 205 227 226 262 276 284 288 304 312 293 239 259 256 272 3 25 41 25 356 339 26 55
146 172 159 199 235 120 105 102 131 120 108 101 67 93 130 219 294 203 246 282 291 302 107 185 239 252 268 275 273 276 282 301 308 285 224 274 331 50 35 56 18 328 25 31 34
146 142 128 109 113 90 79 150 148 110 112 91 116 168 166 214 184 243 269 215 249 314 325 179 262 165 274 270 275 322 13 344 24 353 357 58 58 353 7 78 78 15 14 28 22
128 124 130 72 94 98 180 125 125 116 136 156 176 139 231 216 280 284 279 259 253 263 301 268 274 299 261 272 299 98 5 354 57 30 353 38 350 346 1 37 35 32 20 13 9
Height
1526 1525 1524 1523 1523 1521 1519 1518 1518 1516 1514 1512 1510 1508 1505 1501 1500 1498 1493 1493 1495 1495 1496 1497 1496 1498 1499 1497 1497 1497 1505 1506 1497 1494 1484 1476 1478 1477 1477 1474 1472 1463 1461 1460 1464
1523 1522 1521 1521 1520 1519 1517 1516 1515 1514 1512 1510 1509 1506 1503 1499 1497 1495 1492 1490 1492 1494 1495 1495 1493 1494 1495 1494 1494 1493 1497 1492 1484 1484 1482 1478 1476 1475 1478 1473 1468 1467 1460 1461 1462
1521 1519 1519 1518 1518 1516 1515 1514 1512 1511 1510 1508 1506 1504 1502 1498 1496 1494 1493 1492 1492 1492 1492 1492 1492 1493 1492 1491 1489 1485 1485 1482 1482 1482 1481 1479 1473 1471 1475 1476 1471 1472 1473 1463 1463
1517 1517 1516 1515 1515 1515 1513 1512 1510 1508 1508 1506 1503 1502 1500 1498 1499 1493 1493 1492 1492 1492 1491 1491 1491 1491 1490 1489 1485 1488 1481 1481 1479 1478 1477 1476 1473 1466 1469 1470 1469 1467 1471 1474 1469
1513 1513 1513 1512 1511 1512 1511 1510 1508 1507 1505 1503 1501 1499 1499 1497 1493 1492 1492 1492 1491 1491 1490 1489 1489 1488 1488 1485 1483 1480 1477 1475 1476 1475 1472 1470 1467 1465 1458 1463 1463 1462 1461 1465 1469
1510 1508 1509 1509 1509 1508 1508 1507 1506 1504 1502 1500 1499 1498 1497 1496 1490 1491 1491 1489 1489 1488 1488 1488 1487 1486 1485 1483 1484 1477 1474 1472 1470 1470 1468 1466 1459 1460 1458 1458 1457 1456 1454 1456 1458
1506 1505 1505 1506 1506 1505 1505 1505 1503 1501 1498 1497 1497 1495 1495 1491 1489 1488 1488 1487 1486 1486 1485 1484 1485 1484 1483 1482 1478 1476 1473 1467 1466 1465 1464 1464 1451 1455 1454 1453 1448 1450 1450 1448 1448
1502 1501 1501 1502 1502 1502 1501 1501 1500 1499 1496 1495 1494 1494 1490 1489 1487 1486 1486 1484 1484 1483 1483 1482 1482 1481 1480 1480 1478 1477 1474 1475 1462 1463 1462 1466 1447 1451 1449 1448 1444 1442 1445 1444 1441
1498 1498 1498 1498 1497 1498 1498 1496 1497 1497 1496 1493 1493 1492 1488 1487 1487 1484 1484 1483 1481 1480 1480 1480 1480 1480 1479 1481 1487 1481 1482 1475 1466 1462 1461 1463 1454 1445 1445 1443 1440 1438 1435 1438 1438
1495 1494 1496 1495 1494 1494 1494 1493 1493 1495 1496 1494 1492 1493 1487 1486 1485 1484 1482 1480 1477 1476 1478 1479 1479 1480 1482 1487 1496 1486 1482 1473 1470 1463 1460 1461 1454 1439 1440 1439 1436 1433 1432 1431 1431
1493 1492 1493 1493 1490 1492 1493 1491 1495 1494 1492 1489 1488 1487 1484 1484 1484 1484 1481 1479 1477 1476 1480 1477 1483 1486 1477 1475 1473 1474 1476 1474 1462 1457 1462 1456 1449 1437 1433 1434 1430 1428 1428 1429 1428
1486 1490 1490 1490 1490 1488 1489 1486 1490 1493 1490 1486 1485 1485 1484 1484 1484 1482 1481 1481 1480 1482 1479 1483 1485 1474 1475 1472 1471 1470 1473 1468 1452 1451 1456 1451 1445 1432 1426 1428 1427 1423 1423 1423 1423
1481 1484 1486 1486 1488 1487 1485 1484 1488 1490 1492 1484 1483 1482 1484 1484 1483 1482 1481 1480 1480 1480 1482 1487 1478 1473 1472 1473 1469 1465 1468 1464 1460 1452 1448 1447 1444 1433 1421 1420 1420 1418 1417 1417 1419
1479 1480 1482 1485 1490 1487 1484 1484 1485 1488 1495 1485 1482 1480 1482 1483 1483 1482 1481 1482 1481 1481 1479 1479 1471 1472 1473 1472 1468 1462 1460 1458 1456 1458 1460 1443 1451 1424 1425 1420 1417 1415 1413 1412 1414
1476 1478 1479 1482 1484 1484 1489 1484 1483 1486 1495 1480 1481 1480 1480 1484 1483 1481 1480 1481 1482 1481 1482 1483 1476 1474 1474 1467 1465 1460 1456 1456 1452 1454 1455 1437 1456 1423 1418 1418 1416 1413 1409 1407 1409
1471 1475 1477 1479 1479 1484 1486 1486 1483 1489 1488 1478 1477 1477 1481 1482 1481 1479 1479 1481 1481 1479 1475 1477 1472 1470 1470 1468 1467 1462 1455 1451 1448 1452 1457 1435 1442 1439 1417 1415 1410 1406 1403 1401 1404
1468 1473 1476 1478 1477 1480 1484 1488 1489 1484 1465 1478 1477 1478 1483 1483 1481 1480 1482 1487 1491 1491 1485 1476 1470 1470 1468 1470 1466 1467 1467 1473 1464 1455 1445 1427 1432 1419 1411 1408 1406 1401 1395 1393 1393
1465 1469 1474 1475 1477 1479 1481 1487 1484 1468 1469 1472 1477 1480 1484 1483 1483 1483 1485 1492 1489 1489 1490 1485 1480 1475 1473 1478 1480 1478 1472 1491 1481 1458 1453 1443 1434 1413 1414 1414 1411 1402 1389 1385 1384
1463 1467 1472 1473 1474 1478 1482 1485 1482 1477 1477 1477 1477 1483 1484 1486 1486 1487 1490 1493 1495 1496 1496 1491 1480 1476 1478 1478 1479 1474 1478 1469 1470 1463 1462 1438 1424 1416 1420 1415 1410 1399 1380 1381 1384
1462 1466 1470 1472 1472 1477 1481 1475 1478 1479 1481 1479 1479 1480 1492 1493 1494 1495 1494 1497 1496 1497 1493 1489 1485 1475 1475 1476 1474 1476 1472 1477 1473 1488 1461 1436 1441 1438 1430 1427 1418 1406 1403 1396 1391
1462 1464 1468 1469 1470 1475 1483 1477 1479 1479 1480 1484 1485 1487 1489 1495 1496 1498 1496 1498 1498 1496 1491 1489 1490 1480 1478 1478 1479 1473 1471 1469 1467 1467 1458 1441 1432 1441 1439 1430 1427 1417 1421 1404 1406
1459 1463 1466 1467 1472 1472 1476 1473 1477 1480 1481 1483 1484 1486 1493 1497 1499 1499 1499 1497 1497 1496 1494 1491 1490 1490 1482 1472 1474 1475 1473 1477 1475 1469 1463 1454 1445 1437 1436 1428 1430 1428 1426 1418 1418
1455 1460 1466 1468 1474 1476 1472 1475 1476 1477 1482 1485 1488 1490 1494 1501 1504 1498 1498 1497 1496 1494 1492 1491 1494 1503 1477 1473 1470 1469 1467 1465 1469 1471 1465 1466 1448 1431 1433 1430 1429 1431 1427 1423 1421
1450 1460 1464 1467 1464 1464 1471 1475 1480 1483 1485 1485 1489 1491 1497 1501 1501 1502 1501 1497 1494 1491 1489 1490 1492 1490 1491 1484 1479 1475 1462 1459 1457 1465 1454 1448 1444 1434 1434 1432 1429 1429 1431 1418 1412
1447 1451 1453 1465 1463 1463 1467 1473 1480 1485 1485 1487 1492 1495 1501 1503 1503 1502 1499 1496 1491 1488 1487 1489 1493 1486 1482 1477 1472 1467 1463 1458 1455 1449 1453 1436 1438 1442 1436 1432 1434 1438 1432 1426 1426
1444 1448 1452 1457 1460 1464 1469 1476 1479 1482 1486 1489 1493 1496 1499 1501 1504 1504 1498 1496 1494 1488 1488 1487 1494 1486 1482 1470 1463 1463 1469 1463 1461 1456 1445 1442 1447 1449 1443 1437 1436 1438 1434 1432 1438
1444 1446 1450 1458 1462 1468 1472 1475 1480 1482 1487 1488 1492 1496 1498 1496 1494 1491 1491 1491 1489 1490 1489 1487 1485 1481 1473 1466 1465 1468 1476 1469 1467 1464 1459 1455 1460 1455 1449 1445 1445 1441 1442 1443 1441